Wind_Speed
21 19 20 22 23 23 24 25 26 28 29 29 29 29 30 29 29 28 27 27 26 26 27 28 29 30 31 31 32 33 34 35 36 36 36 36 36 37 37 37 37 37
19 17 18 21 22 23 24 25 27 28 29 29 29 29 29 28 27 27 26 26 26 27 28 29 30 31 31 31 32 33 34 35 36 36 36 36 37 37 37 37 38 39
20 18 19 21 22 23 24 26 27 28 29 29 29 29 29 28 27 26 26 26 27 27 28 29 30 31 32 32 32 33 34 35 36 36 37 37 37 37 38 38 39 40
21 21 21 22 22 22 24 25 26 26 27 28 28 28 27 27 26 26 27 27 28 28 29 30 31 32 33 34 34 34 35 36 36 37 38 39 39 39 38 39 39 40
22 22 23 23 21 21 23 24 24 24 26 27 27 27 26 26 27 27 28 28 28 29 29 31 32 34 35 35 35 34 35 36 37 38 39 40 40 40 39 39 40 41
23 23 24 23 22 22 23 23 23 24 25 26 26 26 26 27 28 29 29 29 29 30 31 33 34 34 35 36 36 35 36 37 38 39 40 40 41 41 41 41 41 42
23 23 24 24 23 24 23 22 22 24 25 26 26 26 26 28 29 30 30 30 30 31 33 34 34 35 36 37 37 36 36 37 38 39 40 41 41 42 42 42 42 43
24 24 24 24 24 24 23 22 23 24 26 27 27 27 27 28 30 31 30 30 31 33 34 34 35 36 37 37 37 37 37 38 39 41 42 42 42 43 43 44 44 45
25 24 24 25 25 25 24 23 24 25 27 28 28 28 28 29 31 31 31 31 32 32 33 34 35 37 38 38 38 38 39 40 41 42 42 42 43 44 45 46 46 47
27 25 24 25 26 25 24 23 24 26 29 30 29 29 30 30 32 32 31 31 32 33 33 35 36 37 38 39 39 39 39 40 41 41 41 42 44 46 47 48 48 48
28 26 25 25 26 26 25 23 24 27 29 30 30 31 32 32 33 33 32 33 34 35 35 36 37 38 38 39 38 39 39 40 41 41 42 43 45 47 48 48 49 50
30 28 26 25 26 27 27 25 25 28 30 30 30 32 33 34 34 34 34 35 36 36 37 38 38 38 39 39 39 39 40 41 42 42 43 45 47 48 49 49 49 47
32 31 29 27 27 27 27 26 26 29 30 30 31 34 35 35 35 35 35 36 36 37 38 38 38 38 39 40 40 41 42 42 42 42 43 45 47 48 49 48 44 41
34 35 33 28 27 28 27 26 28 30 30 29 32 34 35 35 36 36 36 35 36 37 38 38 38 39 40 40 41 42 42 41 41 41 43 45 46 48 47 43 38 38
33 35 32 29 30 31 27 26 28 29 28 29 32 34 35 36 37 36 35 35 35 36 37 38 38 39 40 41 41 41 40 39 39 41 43 44 46 46 45 40 37 40
33 33 32 32 34 32 25 24 26 26 27 29 32 34 36 37 37 36 35 35 35 36 37 38 38 39 40 41 41 41 39 39 40 43 44 45 46 46 44 42 43 46
34 36 39 40 37 31 24 25 25 25 27 29 32 35 37 37 37 36 35 34 34 37 39 40 39 39 40 41 41 41 41 41 43 45 45 45 46 46 45 45 46 48
36 42 46 45 38 33 27 28 26 25 27 30 33 35 36 36 36 35 35 34 35 39 41 40 39 40 41 41 42 42 43 43 44 45 45 45 46 46 46 46 46 46
38 42 45 43 37 33 30 30 27 26 29 31 33 35 35 36 36 35 34 35 38 41 41 40 40 41 41 41 42 43 44 44 45 45 45 45 46 46 47 46 45 44
38 38 41 40 35 32 32 32 28 28 29 31 32 34 34 34 34 33 35 37 40 42 41 41 42 42 41 41 43 45 45 45 44 44 45 45 46 47 47 46 45 43
33 30 31 30 30 31 33 30 28 29 30 31 32 32 31 31 32 34 37 39 41 42 43 44 43 41 41 43 45 45 44 44 44 44 45 46 46 47 46 45 44 43
24 27 29 28 29 30 29 28 29 30 32 32 32 30 30 31 34 37 39 39 41 44 46 45 43 42 43 45 45 44 44 44 44 44 45 46 46 46 45 44 44 42
33 35 33 31 29 28 28 30 32 34 35 35 33 32 32 34 37 37 38 41 44 46 45 43 42 45 46 45 44 44 45 45 44 44 45 45 46 45 44 44 43 41
40 35 33 31 29 29 31 33 35 36 36 35 34 34 35 37 38 39 42 44 44 43 43 43 46 48 47 45 44 44 45 45 45 45 45 45 45 44 43 43 42 40
36 35 34 31 29 31 33 35 36 37 35 34 34 36 37 39 41 43 45 44 41 42 45 47 48 49 47 46 46 46 46 45 45 45 45 45 44 43 43 43 42 39
37 37 35 32 32 34 34 35 36 36 34 34 35 37 39 41 42 42 42 41 43 47 49 48 48 49 48 47 47 46 46 45 45 45 45 44 42 42 42 42 40 37
Wind_Direction
286 286 287 290 291 290 290 292 294 295 296 298 300 301 302 303 304 304 304 304 305 306 306 306 307 307 308 309 310 310 310 310 309 309 309 310 311 311 312 312 312 312
289 284 282 285 288 289 290 292 293 295 296 297 299 301 303 304 304 304 305 305 306 306 306 306 306 306 307 308 308 309 309 309 309 309 309 310 311 311 312 312 311 311
292 288 283 282 285 288 290 291 293 294 295 298 301 303 304 305 306 307 306 305 305 306 306 305 305 306 306 308 309 310 311 310 310 311 311 311 311 311 311 311 311 312
294 291 286 283 285 289 291 291 291 293 297 301 304 304 306 308 308 307 305 305 305 306 306 306 307 308 310 311 312 313 312 312 311 312 312 312 312 311 311 311 312 312
294 291 287 285 287 292 292 290 288 294 301 304 304 306 308 309 306 304 304 304 305 306 307 308 309 310 312 312 313 313 313 313 313 313 313 313 312 312 312 312 312 313
292 291 288 286 289 293 293 288 287 297 304 305 306 308 309 308 306 305 304 304 305 306 306 307 309 310 311 311 313 315 316 315 315 314 313 313 313 312 312 313 313 314
288 288 288 286 288 291 292 287 288 299 307 308 309 310 309 309 307 305 304 303 304 304 305 306 308 310 310 312 315 316 316 316 315 315 314 313 313 312 312 313 314 314
284 285 285 283 285 289 291 287 288 299 308 309 310 311 310 309 306 303 302 301 302 303 304 307 309 312 314 315 316 317 317 317 317 316 314 313 313 313 313 314 315 314
281 283 283 282 284 288 290 287 288 297 305 308 310 311 309 307 304 300 299 299 301 303 305 309 313 315 316 316 317 319 319 319 318 316 315 314 314 314 314 315 315 315
280 281 281 281 284 289 291 287 288 295 301 305 308 309 307 305 301 298 297 298 300 302 306 311 314 315 316 317 318 320 320 320 318 317 316 316 316 316 315 315 315 315
281 281 281 281 282 286 289 286 288 295 299 302 306 307 305 301 297 295 295 297 299 302 306 309 311 313 316 318 320 321 321 320 319 318 318 318 317 316 315 315 315 315
280 279 278 277 278 281 283 286 291 295 296 300 304 304 301 296 294 294 295 297 299 301 305 307 309 312 316 319 321 322 322 321 319 319 319 319 318 317 316 316 316 316
276 275 274 277 280 280 282 287 292 293 294 298 300 299 296 294 294 296 297 298 299 302 304 307 310 313 316 319 322 323 322 320 319 318 319 319 318 317 318 318 317 317
269 272 277 282 282 279 279 285 289 289 291 294 295 295 294 294 296 297 298 298 300 303 306 310 313 315 317 320 322 323 321 319 319 320 320 319 318 318 319 318 316 319
262 270 276 278 276 274 276 285 288 287 288 292 293 293 294 295 296 297 298 299 301 305 310 314 316 317 319 321 323 323 322 321 321 321 320 319 318 319 319 315 312 316
266 269 273 276 275 270 275 290 292 288 290 293 293 294 294 295 295 296 298 300 304 310 315 318 319 319 320 321 322 322 321 321 321 321 320 318 317 317 316 312 308 311
272 269 273 278 273 262 274 300 300 293 295 295 293 294 294 294 296 298 300 303 309 316 319 320 320 320 321 321 320 320 319 318 318 319 318 316 315 314 313 311 308 309
275 270 272 275 268 257 274 303 305 297 297 295 294 296 296 298 300 301 303 307 314 319 320 319 319 320 320 319 319 319 318 317 317 317 316 314 313 312 312 310 308 308
279 275 271 270 263 260 280 303 305 298 297 296 296 299 300 302 303 303 305 310 316 319 318 317 317 318 318 318 319 320 319 318 317 316 315 313 312 311 311 310 309 309
281 279 273 268 262 270 290 304 302 298 297 297 299 301 302 303 304 306 308 312 316 317 316 317 317 316 316 318 320 320 318 317 316 315 313 312 311 311 310 309 309 309
276 279 280 275 272 282 296 301 299 297 297 297 299 301 304 307 308 308 308 310 313 315 316 316 315 315 317 319 319 318 316 315 315 315 313 311 311 310 309 308 309 309
282 288 289 286 286 292 299 300 297 297 296 297 302 305 309 311 310 309 308 310 313 315 315 314 313 315 318 319 318 316 315 315 315 314 312 311 309 308 307 307 308 308
299 299 295 292 293 298 301 299 297 297 298 302 307 310 311 311 310 309 309 311 314 315 314 313 314 317 318 318 317 315 315 315 315 313 311 309 307 306 306 307 308 308
302 303 300 296 296 298 299 297 297 298 301 306 309 309 308 308 308 308 309 311 314 316 315 314 314 316 318 318 316 315 315 315 314 312 310 308 306 306 306 308 308 307
303 304 301 296 294 296 296 294 296 299 303 306 307 306 305 305 307 309 309 311 315 318 316 315 315 316 318 318 316 315 315 313 311 310 308 307 306 307 308 308 308 306
299 300 298 292 291 292 291 292 296 300 303 304 304 304 305 307 310 313 313 313 315 317 316 315 316 317 317 317 315 314 313 311 309 308 307 306 307 307 308 308 307 304
Height
5904 5903 5901 5900 5899 5899 5898 5897 5895 5894 5893 5892 5890 5889 5888 5886 5884 5883 5881 5879 5878 5877 5875 5874 5872 5869 5867 5865 5862 5860 5858 5857 5855 5853 5851 5849 5847 5845 5843 5841 5839 5837
5901 5900 5899 5897 5896 5895 5894 5893 5892 5891 5890 5888 5887 5886 5885 5883 5881 5879 5878 5876 5875 5873 5872 5871 5869 5866 5864 5861 5858 5856 5854 5852 5851 5849 5847 5845 5843 5841 5839 5837 5834 5832
5898 5897 5896 5894 5894 5893 5892 5890 5889 5888 5886 5885 5884 5882 5881 5879 5878 5876 5874 5873 5872 5870 5869 5867 5865 5863 5861 5858 5855 5853 5850 5848 5846 5844 5843 5841 5839 5837 5834 5832 5830 5827
5895 5894 5893 5891 5891 5890 5889 5888 5886 5885 5883 5882 5880 5879 5878 5876 5874 5873 5871 5870 5868 5867 5865 5863 5861 5859 5857 5854 5851 5848 5846 5844 5842 5840 5838 5836 5834 5832 5830 5828 5825 5822
5892 5891 5890 5889 5888 5888 5886 5885 5883 5882 5880 5879 5877 5876 5874 5873 5871 5870 5868 5866 5865 5863 5861 5859 5857 5855 5852 5850 5847 5845 5843 5840 5838 5836 5834 5832 5830 5828 5825 5823 5820 5818
5889 5888 5887 5886 5885 5884 5883 5882 5881 5879 5877 5876 5874 5872 5871 5869 5868 5866 5864 5863 5861 5859 5857 5855 5853 5851 5849 5846 5844 5841 5838 5836 5834 5832 5829 5827 5825 5822 5820 5818 5815 5813
5886 5885 5884 5883 5882 5881 5880 5879 5878 5876 5874 5872 5870 5868 5867 5865 5863 5862 5861 5859 5857 5855 5854 5852 5850 5848 5846 5843 5840 5837 5834 5832 5829 5827 5825 5822 5819 5817 5815 5813 5810 5808
5882 5881 5880 5879 5878 5877 5876 5875 5874 5873 5871 5868 5866 5864 5863 5861 5860 5858 5857 5855 5853 5852 5850 5848 5846 5844 5842 5839 5836 5833 5830 5827 5825 5822 5820 5817 5814 5812 5810 5808 5805 5803
5878 5877 5876 5875 5874 5873 5872 5871 5870 5869 5867 5865 5863 5861 5859 5858 5856 5855 5853 5852 5850 5849 5847 5845 5842 5840 5837 5835 5832 5828 5825 5822 5820 5818 5815 5812 5810 5807 5805 5803 5800 5797
5873 5873 5872 5871 5870 5869 5868 5867 5866 5865 5863 5861 5859 5858 5856 5854 5853 5851 5850 5849 5847 5845 5843 5841 5838 5836 5833 5831 5827 5824 5820 5818 5815 5813 5811 5808 5805 5802 5800 5797 5795 5792
5869 5868 5868 5867 5865 5864 5863 5862 5861 5860 5859 5857 5856 5854 5853 5851 5850 5848 5847 5846 5844 5841 5839 5837 5834 5832 5829 5826 5823 5819 5816 5813 5811 5808 5806 5803 5800 5798 5795 5792 5789 5786
5863 5863 5862 5861 5860 5860 5859 5858 5857 5856 5854 5853 5852 5851 5850 5848 5846 5845 5843 5841 5839 5837 5835 5833 5830 5827 5824 5821 5818 5815 5811 5809 5806 5803 5800 5798 5795 5792 5790 5787 5784 5781
5857 5856 5855 5856 5857 5857 5856 5855 5854 5852 5850 5849 5848 5848 5847 5844 5842 5840 5838 5836 5834 5833 5831 5828 5825 5822 5819 5816 5812 5809 5806 5803 5801 5798 5795 5792 5790 5787 5784 5782 5779 5776
5851 5850 5852 5854 5854 5853 5852 5851 5850 5848 5846 5845 5845 5844 5842 5840 5837 5835 5833 5832 5830 5828 5826 5823 5819 5816 5813 5810 5807 5804 5801 5798 5795 5793 5790 5787 5784 5782 5779 5777 5774 5771
5848 5848 5850 5852 5850 5848 5847 5847 5845 5843 5842 5841 5840 5839 5837 5835 5833 5831 5828 5827 5825 5823 5821 5817 5813 5810 5807 5804 5802 5799 5796 5793 5790 5788 5785 5782 5779 5777 5775 5772 5769 5766
5848 5846 5846 5847 5845 5844 5844 5843 5841 5839 5837 5836 5835 5834 5832 5831 5828 5826 5824 5822 5820 5818 5815 5812 5808 5805 5802 5799 5797 5794 5791 5788 5785 5782 5780 5777 5775 5772 5770 5768 5765 5761
5845 5843 5841 5840 5839 5839 5839 5838 5836 5834 5832 5831 5831 5830 5828 5826 5823 5821 5818 5816 5814 5812 5810 5806 5803 5800 5797 5794 5792 5789 5786 5783 5780 5777 5775 5773 5770 5768 5766 5763 5760 5757
5838 5837 5836 5835 5834 5834 5834 5833 5831 5829 5828 5828 5827 5826 5823 5821 5818 5815 5812 5811 5809 5807 5804 5801 5798 5795 5793 5789 5786 5784 5781 5778 5775 5773 5770 5768 5766 5763 5761 5758 5755 5752
5834 5833 5831 5831 5830 5830 5830 5828 5826 5825 5825 5824 5823 5821 5818 5815 5812 5809 5807 5805 5804 5802 5799 5796 5793 5790 5788 5784 5781 5778 5775 5773 5770 5768 5765 5763 5761 5758 5756 5753 5750 5747
5830 5830 5828 5827 5827 5827 5826 5824 5822 5822 5821 5820 5818 5815 5813 5810 5807 5804 5802 5800 5798 5797 5794 5791 5788 5785 5782 5779 5776 5773 5770 5768 5765 5763 5760 5758 5756 5753 5750 5748 5745 5742
5825 5826 5826 5825 5825 5824 5822 5820 5819 5817 5816 5815 5813 5810 5808 5805 5802 5799 5797 5795 5794 5792 5789 5786 5783 5780 5777 5774 5771 5768 5765 5763 5761 5758 5756 5753 5750 5748 5745 5742 5739 5736
5822 5823 5823 5822 5821 5819 5817 5816 5814 5812 5811 5809 5807 5805 5802 5799 5797 5795 5793 5791 5789 5787 5784 5781 5778 5775 5772 5769 5766 5763 5760 5758 5756 5754 5751 5748 5746 5743 5740 5737 5734 5731
5817 5817 5816 5815 5814 5813 5811 5810 5809 5807 5805 5803 5801 5799 5796 5794 5792 5790 5788 5786 5784 5782 5779 5776 5773 5770 5767 5764 5761 5758 5755 5753 5751 5749 5746 5744 5741 5738 5734 5731 5728 5725
5810 5809 5808 5807 5807 5806 5805 5804 5803 5801 5799 5798 5796 5794 5792 5790 5788 5786 5783 5781 5779 5776 5774 5771 5767 5764 5761 5758 5756 5753 5750 5748 5746 5744 5741 5739 5736 5732 5729 5726 5723 5720
5805 5804 5803 5802 5802 5801 5801 5799 5798 5797 5795 5793 5792 5790 5788 5786 5784 5781 5778 5775 5773 5771 5768 5765 5761 5758 5755 5753 5750 5747 5745 5743 5741 5739 5736 5733 5731 5727 5724 5721 5718 5715
5802 5801 5799 5798 5797 5797 5796 5795 5794 5792 5791 5789 5787 5786 5784 5781 5778 5775 5771 5768 5766 5765 5762 5759 5756 5752 5750 5747 5745 5742 5740 5738 5736 5734 5731 5728 5725 5722 5719 5716 5713 5711